OAL337 LGAV-LQSA

Flight info

Callsign OAL337
Flight time 2h 11m
Altitude 20000
Route KRO G33 NEVRA N137 SKP L617 MAKED P20 LONTA L608 KEB
Aircraft AT46/M-SDFGIRY/S

Departure

Time 2026-05-08 21:10
Airport Athens Eleftherios Venizelos International Airport (LGAV)

Arrival

Time 2026-05-08 23:21
Airport Sarajevo International Airport (LQSA)
Time Latitude Longitude Altitude Speed Heading
2026-05-08 20:55 37.94364 23.95514 301 ft 0 kts 217°
2026-05-08 21:04 37.94347 23.95500 298 ft 7 kts 199°
2026-05-08 21:05 37.94298 23.95552 299 ft 16 kts 126°
2026-05-08 21:05 37.94239 23.95655 296 ft 14 kts 118°
2026-05-08 21:05 37.94286 23.95743 297 ft 14 kts 36°
2026-05-08 21:05 37.94362 23.95820 297 ft 14 kts 59°
2026-05-08 21:06 37.94354 23.95937 295 ft 14 kts 70°
2026-05-08 21:06 37.94428 23.96019 297 ft 14 kts 35°
2026-05-08 21:06 37.94509 23.96095 295 ft 15 kts 38°
2026-05-08 21:06 37.94590 23.96173 296 ft 15 kts 37°
2026-05-08 21:07 37.94657 23.96255 297 ft 2 kts 89°
2026-05-08 21:07 37.94630 23.96317 295 ft 12 kts 152°
2026-05-08 21:07 37.94549 23.96314 290 ft 12 kts 188°
2026-05-08 21:07 37.94473 23.96301 291 ft 10 kts 163°
2026-05-08 21:08 37.94440 23.96305 285 ft 0 kts 207°
2026-05-08 21:09 37.94426 23.96295 288 ft 16 kts 214°
2026-05-08 21:09 37.94189 23.96070 281 ft 73 kts 217°
2026-05-08 21:09 37.93590 23.95507 308 ft 133 kts 216°
2026-05-08 21:09 37.92750 23.94826 742 ft 151 kts 211°
2026-05-08 21:10 37.91814 23.94173 1478 ft 154 kts 209°
2026-05-08 21:10 37.90829 23.93520 2139 ft 163 kts 207°
2026-05-08 21:10 37.89707 23.92929 2628 ft 188 kts 197°
2026-05-08 21:10 37.88392 23.93125 3337 ft 200 kts 155°
2026-05-08 21:11 37.87480 23.94400 4360 ft 191 kts 128°
2026-05-08 21:11 37.86812 23.95813 5008 ft 187 kts 127°
2026-05-08 21:11 37.86101 23.97225 5345 ft 195 kts 131°
2026-05-08 21:11 37.85257 23.98620 5664 ft 202 kts 136°
2026-05-08 21:12 37.84290 23.99948 6046 ft 208 kts 142°
2026-05-08 21:12 37.83225 24.01178 6389 ft 206 kts 146°
2026-05-08 21:12 37.82135 24.02327 6729 ft 203 kts 148°
2026-05-08 21:12 37.81121 24.03581 7073 ft 210 kts 126°
2026-05-08 21:13 37.80848 24.05402 7410 ft 218 kts 82°
2026-05-08 21:13 37.81488 24.07097 7599 ft 218 kts 41°
2026-05-08 21:13 37.82608 24.08396 7798 ft 221 kts 37°
2026-05-08 21:13 37.83882 24.09433 7999 ft 215 kts
2026-05-08 21:14 37.85292 24.09307 8210 ft 198 kts 325°
2026-05-08 21:14 37.86042 24.08710 8340 ft 191 kts 320°
2026-05-08 21:14 37.87410 24.08365 8456 ft 220 kts
2026-05-08 21:14 37.89316 24.09587 8626 ft 241 kts 28°
2026-05-08 21:15 37.90255 24.10427 8709 ft 246 kts 29°
2026-05-08 21:15 37.91661 24.11610 8915 ft 245 kts 25°
2026-05-08 21:15 37.93156 24.12624 9120 ft 242 kts 18°
2026-05-08 21:15 37.94712 24.13418 9331 ft 239 kts 11°
2026-05-08 21:16 37.96302 24.14059 9534 ft 238 kts
2026-05-08 21:16 37.97869 24.14644 9734 ft 238 kts
2026-05-08 21:16 37.99459 24.15235 9943 ft 238 kts
2026-05-08 21:16 38.01048 24.15844 10138 ft 238 kts
2026-05-08 21:17 38.02641 24.16481 10325 ft 239 kts
2026-05-08 21:17 38.04221 24.17118 10515 ft 238 kts
2026-05-08 21:17 38.05807 24.17760 10700 ft 238 kts
2026-05-08 21:17 38.07364 24.18388 10890 ft 238 kts
2026-05-08 21:18 38.08942 24.19026 11082 ft 237 kts
2026-05-08 21:18 38.10519 24.19664 11279 ft 238 kts
2026-05-08 21:18 38.12097 24.20302 11484 ft 237 kts
2026-05-08 21:18 38.13637 24.20926 11733 ft 234 kts
2026-05-08 21:19 38.15191 24.21556 11971 ft 233 kts
2026-05-08 21:19 38.16715 24.22178 12162 ft 231 kts
2026-05-08 21:19 38.18238 24.22801 12418 ft 229 kts
2026-05-08 21:19 38.19754 24.23411 12679 ft 228 kts
2026-05-08 21:20 38.21268 24.24024 12938 ft 227 kts
2026-05-08 21:20 38.22751 24.24624 13149 ft 226 kts
2026-05-08 21:20 38.24244 24.25217 13379 ft 224 kts
2026-05-08 21:20 38.25721 24.25833 13629 ft 223 kts
2026-05-08 21:21 38.27193 24.26455 13896 ft 222 kts
2026-05-08 21:21 38.28662 24.27068 14110 ft 222 kts
2026-05-08 21:21 38.30135 24.27671 14318 ft 222 kts
2026-05-08 21:21 38.31609 24.28269 14531 ft 222 kts
2026-05-08 21:22 38.33064 24.28856 14745 ft 222 kts
2026-05-08 21:22 38.34536 24.29452 14963 ft 222 kts
2026-05-08 21:22 38.36007 24.30048 15179 ft 221 kts
2026-05-08 21:22 38.37474 24.30647 15399 ft 221 kts
2026-05-08 21:23 38.38938 24.31243 15622 ft 220 kts
2026-05-08 21:23 38.40398 24.31838 15838 ft 220 kts
2026-05-08 21:23 38.41840 24.32070 16077 ft 197 kts 336°
2026-05-08 21:23 38.43079 24.31534 16296 ft 188 kts 327°
2026-05-08 21:24 38.44244 24.30810 16522 ft 184 kts 321°
2026-05-08 21:24 38.45313 24.29941 16750 ft 180 kts 316°
2026-05-08 21:24 38.46327 24.29003 16947 ft 180 kts 315°
2026-05-08 21:24 38.47339 24.28028 17083 ft 184 kts 315°
2026-05-08 21:25 38.48374 24.27036 17218 ft 187 kts 315°
2026-05-08 21:25 38.49427 24.26027 17350 ft 191 kts 315°
2026-05-08 21:25 38.50481 24.25019 17483 ft 193 kts 316°
2026-05-08 21:25 38.51572 24.23993 17615 ft 195 kts 316°
2026-05-08 21:26 38.52677 24.22961 17750 ft 197 kts 316°
2026-05-08 21:26 38.53794 24.21921 17873 ft 199 kts 316°
2026-05-08 21:26 38.54903 24.20890 18010 ft 200 kts 317°
2026-05-08 21:26 38.56029 24.19842 18145 ft 200 kts 317°
2026-05-08 21:27 38.57159 24.18793 18276 ft 201 kts 317°
2026-05-08 21:27 38.58290 24.17740 18406 ft 201 kts 317°
2026-05-08 21:27 38.59424 24.16685 18520 ft 201 kts 317°
2026-05-08 21:27 38.60558 24.15630 18640 ft 201 kts 317°
2026-05-08 21:28 38.61692 24.14575 18754 ft 201 kts 317°
2026-05-08 21:28 38.62828 24.13519 18875 ft 201 kts 317°
2026-05-08 21:28 38.63961 24.12462 18987 ft 201 kts 317°
2026-05-08 21:28 38.65078 24.11425 19105 ft 201 kts 317°
2026-05-08 21:29 38.66211 24.10369 19235 ft 201 kts 317°
2026-05-08 21:29 38.67348 24.09312 19376 ft 201 kts 317°
2026-05-08 21:29 38.68480 24.08256 19490 ft 201 kts 317°
2026-05-08 21:29 38.69608 24.07200 19610 ft 200 kts 317°
2026-05-08 21:30 38.70715 24.06166 19728 ft 199 kts 317°
2026-05-08 21:30 38.71836 24.05119 19849 ft 198 kts 317°
2026-05-08 21:30 38.72950 24.04078 19958 ft 198 kts 317°
2026-05-08 21:30 38.74073 24.03027 20009 ft 201 kts 317°
2026-05-08 21:31 38.75210 24.01960 20036 ft 204 kts 317°
2026-05-08 21:31 38.76371 24.00875 20047 ft 208 kts 317°
2026-05-08 21:31 38.77548 23.99771 20050 ft 211 kts 317°
2026-05-08 21:31 38.78729 23.98664 20051 ft 214 kts 317°
2026-05-08 21:32 38.79937 23.97530 20052 ft 216 kts 318°
2026-05-08 21:32 38.81160 23.96381 20053 ft 218 kts 318°
2026-05-08 21:32 38.82394 23.95221 20056 ft 220 kts 318°
2026-05-08 21:32 38.83640 23.94056 20055 ft 222 kts 318°
2026-05-08 21:33 38.84891 23.92882 20055 ft 223 kts 318°
2026-05-08 21:33 38.86145 23.91702 20052 ft 224 kts 318°
2026-05-08 21:33 38.87393 23.90529 20056 ft 225 kts 319°
2026-05-08 21:33 38.88661 23.89338 20055 ft 226 kts 319°
2026-05-08 21:34 38.89938 23.88138 20053 ft 227 kts 319°
2026-05-08 21:34 38.91212 23.86938 20052 ft 228 kts 319°
2026-05-08 21:34 38.92496 23.85728 20053 ft 228 kts 319°
2026-05-08 21:34 38.93783 23.84519 20053 ft 229 kts 319°
2026-05-08 21:35 38.95052 23.83322 20056 ft 229 kts 319°
2026-05-08 21:35 38.96340 23.82110 20052 ft 230 kts 319°
2026-05-08 21:35 38.97634 23.80887 20054 ft 230 kts 319°
2026-05-08 21:35 38.98927 23.79668 20052 ft 231 kts 319°
2026-05-08 21:36 39.00223 23.78444 20051 ft 231 kts 319°
2026-05-08 21:36 39.01521 23.77220 20051 ft 231 kts 319°
2026-05-08 21:36 39.02820 23.75992 20052 ft 232 kts 319°
2026-05-08 21:36 39.04119 23.74765 20052 ft 232 kts 319°
2026-05-08 21:37 39.05419 23.73533 20053 ft 232 kts 319°
2026-05-08 21:37 39.06724 23.72302 20053 ft 233 kts 319°
2026-05-08 21:37 39.08014 23.71079 20053 ft 233 kts 319°
2026-05-08 21:37 39.09323 23.69839 20056 ft 234 kts 320°
2026-05-08 21:38 39.10638 23.68594 20055 ft 234 kts 320°
2026-05-08 21:38 39.11954 23.67346 20054 ft 235 kts 320°
2026-05-08 21:38 39.13256 23.66110 20055 ft 236 kts 320°
2026-05-08 21:38 39.14579 23.64856 20052 ft 236 kts 320°
2026-05-08 21:39 39.15906 23.63597 20051 ft 236 kts 320°
2026-05-08 21:39 39.17405 23.62737 20061 ft 240 kts 342°
2026-05-08 21:39 39.18406 23.62452 20051 ft 242 kts 342°
2026-05-08 21:39 39.19850 23.62027 20051 ft 242 kts 341°
2026-05-08 21:40 39.21470 23.61437 20053 ft 241 kts 337°
2026-05-08 21:40 39.23042 23.60711 20054 ft 240 kts 334°
2026-05-08 21:40 39.24593 23.59919 20051 ft 239 kts 334°
2026-05-08 21:41 39.27698 23.58332 20051 ft 240 kts 334°
2026-05-08 21:41 39.29256 23.57543 20050 ft 240 kts 334°
2026-05-08 21:41 39.30800 23.56765 20052 ft 241 kts 335°
2026-05-08 21:41 39.32365 23.55985 20051 ft 241 kts 335°
2026-05-08 21:42 39.33934 23.55206 20055 ft 241 kts 335°
2026-05-08 21:42 39.35503 23.54429 20052 ft 242 kts 335°
2026-05-08 21:42 39.37077 23.53650 20055 ft 242 kts 335°
2026-05-08 21:42 39.38650 23.52873 20055 ft 242 kts 335°
2026-05-08 21:43 39.40226 23.52095 20054 ft 242 kts 335°
2026-05-08 21:43 39.41783 23.51326 20056 ft 242 kts 335°
2026-05-08 21:43 39.43362 23.50546 20055 ft 243 kts 335°
2026-05-08 21:43 39.44941 23.49763 20053 ft 243 kts 335°
2026-05-08 21:44 39.46522 23.48979 20057 ft 243 kts 335°
2026-05-08 21:44 39.48107 23.48193 20057 ft 243 kts 335°
2026-05-08 21:44 39.49692 23.47407 20055 ft 244 kts 335°
2026-05-08 21:44 39.51278 23.46621 20054 ft 244 kts 335°
2026-05-08 21:45 39.52865 23.45831 20054 ft 244 kts 335°
2026-05-08 21:45 39.54433 23.45054 20055 ft 244 kts 335°
2026-05-08 21:45 39.56022 23.44263 20056 ft 244 kts 335°
2026-05-08 21:45 39.57611 23.43473 20059 ft 245 kts 335°
2026-05-08 21:46 39.59203 23.42681 20058 ft 245 kts 335°
2026-05-08 21:46 39.60794 23.41888 20057 ft 245 kts 335°
2026-05-08 21:46 39.62392 23.41093 20060 ft 245 kts 335°
2026-05-08 21:46 39.63989 23.40297 20060 ft 246 kts 335°
2026-05-08 21:47 39.65585 23.39501 20060 ft 246 kts 335°
2026-05-08 21:47 39.67164 23.38714 20061 ft 246 kts 335°
2026-05-08 21:47 39.68766 23.37915 20059 ft 246 kts 335°
2026-05-08 21:47 39.70367 23.37115 20058 ft 246 kts 335°
2026-05-08 21:48 39.71966 23.36316 20058 ft 246 kts 335°
2026-05-08 21:48 39.73567 23.35517 20055 ft 246 kts 335°
2026-05-08 21:48 39.75168 23.34715 20061 ft 247 kts 335°
2026-05-08 21:48 39.76772 23.33912 20062 ft 247 kts 335°
2026-05-08 21:49 39.78356 23.33118 20060 ft 247 kts 335°
2026-05-08 21:49 39.79960 23.32313 20059 ft 247 kts 335°
2026-05-08 21:49 39.81424 23.31581 20061 ft 247 kts 335°
2026-05-08 21:49 39.83029 23.30774 20060 ft 247 kts 335°
2026-05-08 21:50 39.84636 23.29967 20061 ft 248 kts 335°
2026-05-08 21:50 39.86246 23.29159 20061 ft 248 kts 335°
2026-05-08 21:50 39.87709 23.28062 20064 ft 239 kts 310°
2026-05-08 21:50 39.88744 23.26392 20061 ft 236 kts 305°
2026-05-08 21:51 39.89784 23.24765 20060 ft 238 kts 309°
2026-05-08 21:51 39.90926 23.23200 20059 ft 239 kts 312°
2026-05-08 21:51 39.92180 23.21765 20062 ft 241 kts 317°
2026-05-08 21:51 39.93534 23.20466 20059 ft 243 kts 323°
2026-05-08 21:52 39.94979 23.19312 20059 ft 244 kts 327°
2026-05-08 21:52 39.96508 23.18321 20061 ft 246 kts 333°
2026-05-08 21:52 39.97566 23.17780 20059 ft 248 kts 336°
2026-05-08 21:52 39.99004 23.17187 20060 ft 249 kts 340°
2026-05-08 21:53 40.00681 23.16583 20063 ft 250 kts 340°
2026-05-08 21:53 40.02365 23.15986 20063 ft 250 kts 340°
2026-05-08 21:53 40.04042 23.15379 20060 ft 250 kts 339°
2026-05-08 21:53 40.05715 23.14739 20062 ft 250 kts 339°
2026-05-08 21:54 40.07384 23.14094 20062 ft 250 kts 339°
2026-05-08 21:54 40.09055 23.13444 20064 ft 250 kts 339°
2026-05-08 21:54 40.10724 23.12798 20065 ft 250 kts 339°
2026-05-08 21:54 40.12373 23.12157 20067 ft 250 kts 339°
2026-05-08 21:55 40.14042 23.11507 20066 ft 250 kts 339°
2026-05-08 21:55 40.15710 23.10859 20064 ft 250 kts 339°
2026-05-08 21:55 40.17381 23.10207 20067 ft 250 kts 339°
2026-05-08 21:56 40.20722 23.08905 20069 ft 250 kts 339°
2026-05-08 21:56 40.22373 23.08261 20075 ft 250 kts 339°
2026-05-08 21:56 40.24036 23.07613 20076 ft 250 kts 339°
2026-05-08 21:56 40.25710 23.06960 20077 ft 250 kts 339°
2026-05-08 21:57 40.27379 23.06308 20078 ft 250 kts 338°
2026-05-08 21:57 40.29049 23.05656 20081 ft 250 kts 338°
2026-05-08 21:57 40.30695 23.05011 20079 ft 250 kts 338°
2026-05-08 21:57 40.32365 23.04359 20081 ft 250 kts 338°
2026-05-08 21:58 40.34034 23.03704 20083 ft 250 kts 338°
2026-05-08 21:58 40.35702 23.03052 20084 ft 250 kts 338°
2026-05-08 21:58 40.37376 23.02397 20089 ft 250 kts 338°
2026-05-08 21:58 40.39026 23.01747 20088 ft 251 kts 338°
2026-05-08 21:59 40.40703 23.01092 20090 ft 251 kts 338°
2026-05-08 21:59 40.42372 23.00436 20086 ft 251 kts 338°
2026-05-08 21:59 40.44052 22.99779 20089 ft 251 kts 338°
2026-05-08 21:59 40.45724 22.99114 20086 ft 250 kts 335°
2026-05-08 22:00 40.47290 22.98175 20086 ft 245 kts 326°
2026-05-08 22:00 40.48768 22.97065 20086 ft 244 kts 325°
2026-05-08 22:00 40.50221 22.95952 20088 ft 245 kts 325°
2026-05-08 22:00 40.51710 22.94855 20087 ft 245 kts 326°
2026-05-08 22:01 40.53214 22.93797 20087 ft 246 kts 327°
2026-05-08 22:01 40.54726 22.92740 20088 ft 246 kts 327°
2026-05-08 22:01 40.56235 22.91684 20089 ft 245 kts 327°
2026-05-08 22:01 40.57744 22.90625 20090 ft 245 kts 327°
2026-05-08 22:02 40.58744 22.89926 20086 ft 245 kts 327°
2026-05-08 22:02 40.60741 22.88524 20087 ft 245 kts 327°
2026-05-08 22:02 40.62249 22.87471 20084 ft 245 kts 327°
2026-05-08 22:02 40.63234 22.86779 20085 ft 245 kts 327°
2026-05-08 22:03 40.64521 22.85875 20087 ft 245 kts 327°
2026-05-08 22:03 40.66028 22.84817 20088 ft 245 kts 327°
2026-05-08 22:03 40.67531 22.83760 20090 ft 245 kts 327°
2026-05-08 22:03 40.69037 22.82705 20089 ft 245 kts 329°
2026-05-08 22:04 40.70562 22.81684 20083 ft 246 kts 329°
2026-05-08 22:04 40.72085 22.80641 20089 ft 246 kts 328°
2026-05-08 22:04 40.73593 22.79571 20084 ft 247 kts 328°
2026-05-08 22:04 40.75085 22.78497 20086 ft 247 kts 328°
2026-05-08 22:05 40.76600 22.77421 20087 ft 247 kts 328°
2026-05-08 22:05 40.78118 22.76351 20086 ft 248 kts 329°
2026-05-08 22:05 40.79646 22.75292 20082 ft 248 kts 329°
2026-05-08 22:05 40.81179 22.74235 20088 ft 248 kts 329°
2026-05-08 22:06 40.82710 22.73180 20084 ft 248 kts 329°
2026-05-08 22:06 40.84243 22.72123 20084 ft 248 kts 329°
2026-05-08 22:06 40.85777 22.71062 20082 ft 248 kts 329°
2026-05-08 22:06 40.87291 22.70012 20084 ft 248 kts 329°
2026-05-08 22:07 40.88819 22.68949 20086 ft 248 kts 329°
2026-05-08 22:07 40.90346 22.67882 20087 ft 248 kts 329°
2026-05-08 22:07 40.91875 22.66812 20085 ft 248 kts 329°
2026-05-08 22:07 40.93405 22.65739 20085 ft 249 kts 329°
2026-05-08 22:08 40.94936 22.64662 20083 ft 249 kts 329°
2026-05-08 22:08 40.96445 22.63598 20084 ft 249 kts 329°
2026-05-08 22:08 40.97973 22.62519 20083 ft 249 kts 329°
2026-05-08 22:08 40.99501 22.61437 20086 ft 248 kts 329°
2026-05-08 22:09 41.01028 22.60352 20084 ft 248 kts 329°
2026-05-08 22:09 41.02531 22.59282 20085 ft 248 kts 329°
2026-05-08 22:09 41.04053 22.58195 20086 ft 248 kts 329°
2026-05-08 22:09 41.05575 22.57107 20081 ft 248 kts 329°
2026-05-08 22:10 41.07093 22.56019 20080 ft 248 kts 329°
2026-05-08 22:10 41.08612 22.54927 20087 ft 248 kts 329°
2026-05-08 22:10 41.10129 22.53835 20084 ft 248 kts 329°
2026-05-08 22:10 41.11650 22.52740 20084 ft 248 kts 329°
2026-05-08 22:11 41.13169 22.51646 20085 ft 248 kts 328°
2026-05-08 22:11 41.14669 22.50563 20086 ft 248 kts 328°
2026-05-08 22:11 41.16188 22.49465 20089 ft 248 kts 328°
2026-05-08 22:11 41.17707 22.48363 20080 ft 248 kts 328°
2026-05-08 22:12 41.19227 22.47259 20082 ft 248 kts 328°
2026-05-08 22:12 41.20744 22.46157 20084 ft 248 kts 328°
2026-05-08 22:12 41.22261 22.45053 20085 ft 248 kts 328°
2026-05-08 22:12 41.23759 22.43963 20082 ft 248 kts 328°
2026-05-08 22:13 41.25274 22.42857 20080 ft 248 kts 328°
2026-05-08 22:13 41.26790 22.41749 20084 ft 248 kts 328°
2026-05-08 22:13 41.28306 22.40637 20081 ft 249 kts 328°
2026-05-08 22:13 41.29824 22.39523 20079 ft 249 kts 328°
2026-05-08 22:14 41.31342 22.38409 20079 ft 249 kts 328°
2026-05-08 22:14 41.32858 22.37295 20084 ft 249 kts 328°
2026-05-08 22:14 41.34358 22.36191 20076 ft 249 kts 328°
2026-05-08 22:14 41.35876 22.35074 20077 ft 249 kts 328°
2026-05-08 22:15 41.37395 22.33956 20084 ft 250 kts 328°
2026-05-08 22:15 41.38917 22.32832 20081 ft 250 kts 328°
2026-05-08 22:15 41.40441 22.31706 20081 ft 251 kts 328°
2026-05-08 22:15 41.41971 22.30575 20079 ft 251 kts 328°
2026-05-08 22:16 41.43504 22.29439 20077 ft 251 kts 328°
2026-05-08 22:16 41.45035 22.28304 20069 ft 252 kts 328°
2026-05-08 22:16 41.46566 22.27168 20075 ft 252 kts 328°
2026-05-08 22:16 41.48081 22.26044 20072 ft 252 kts 328°
2026-05-08 22:17 41.49615 22.24905 20075 ft 252 kts 328°
2026-05-08 22:17 41.51156 22.23760 20072 ft 253 kts 328°
2026-05-08 22:17 41.52691 22.22618 20069 ft 253 kts 328°
2026-05-08 22:17 41.54231 22.21472 20073 ft 253 kts 328°
2026-05-08 22:18 41.55751 22.20338 20074 ft 253 kts 328°
2026-05-08 22:18 41.57291 22.19190 20067 ft 253 kts 328°
2026-05-08 22:18 41.58832 22.18042 20065 ft 253 kts 328°
2026-05-08 22:18 41.60375 22.16893 20066 ft 254 kts 328°
2026-05-08 22:19 41.61918 22.15746 20069 ft 254 kts 328°
2026-05-08 22:19 41.63461 22.14597 20068 ft 254 kts 328°
2026-05-08 22:19 41.64986 22.13461 20061 ft 254 kts 328°
2026-05-08 22:19 41.66529 22.12312 20064 ft 254 kts 328°
2026-05-08 22:20 41.68046 22.11132 20053 ft 249 kts 320°
2026-05-08 22:20 41.69145 22.09409 20068 ft 241 kts 304°
2026-05-08 22:20 41.70224 22.07678 20067 ft 243 kts 310°
2026-05-08 22:20 41.71381 22.06026 20068 ft 244 kts 311°
2026-05-08 22:21 41.72544 22.04364 20067 ft 244 kts 310°
2026-05-08 22:21 41.73676 22.02667 20070 ft 245 kts 309°
2026-05-08 22:21 41.74788 22.00939 20065 ft 245 kts 308°
2026-05-08 22:21 41.75905 21.99200 20069 ft 246 kts 309°
2026-05-08 22:22 41.77030 21.97464 20063 ft 247 kts 309°
2026-05-08 22:22 41.78145 21.95750 20065 ft 247 kts 309°
2026-05-08 22:22 41.79276 21.94015 20064 ft 247 kts 309°
2026-05-08 22:22 41.80405 21.92281 20071 ft 247 kts 309°
2026-05-08 22:23 41.81537 21.90542 20072 ft 247 kts 309°
2026-05-08 22:23 41.82668 21.88802 20076 ft 247 kts 309°
2026-05-08 22:23 41.83799 21.87063 20071 ft 248 kts 309°
2026-05-08 22:23 41.84933 21.85317 20073 ft 248 kts 309°
2026-05-08 22:24 41.86050 21.83598 20076 ft 247 kts 309°
2026-05-08 22:24 41.87184 21.81851 20077 ft 248 kts 309°
2026-05-08 22:24 41.88316 21.80108 20077 ft 248 kts 309°
2026-05-08 22:24 41.89448 21.78362 20078 ft 248 kts 309°
2026-05-08 22:25 41.90581 21.76612 20086 ft 248 kts 309°
2026-05-08 22:25 41.91697 21.74889 20088 ft 248 kts 309°
2026-05-08 22:25 41.92845 21.73117 20086 ft 248 kts 309°
2026-05-08 22:25 41.93964 21.71387 20085 ft 248 kts 309°
2026-05-08 22:26 41.95094 21.69641 20085 ft 248 kts 309°
2026-05-08 22:26 41.96229 21.67885 20089 ft 248 kts 309°
2026-05-08 22:26 41.97362 21.66132 20088 ft 248 kts 309°
2026-05-08 22:26 41.98497 21.64372 20083 ft 248 kts 309°
2026-05-08 22:27 41.99627 21.62620 20085 ft 248 kts 309°
2026-05-08 22:27 42.00760 21.60864 20090 ft 248 kts 309°
2026-05-08 22:27 42.01896 21.59100 20089 ft 249 kts 309°
2026-05-08 22:27 42.03016 21.57362 20084 ft 249 kts 309°
2026-05-08 22:28 42.04151 21.55599 20088 ft 249 kts 309°
2026-05-08 22:28 42.05286 21.53834 20091 ft 249 kts 309°
2026-05-08 22:28 42.06426 21.52061 20083 ft 250 kts 309°
2026-05-08 22:28 42.07564 21.50288 20083 ft 250 kts 308°
2026-05-08 22:29 42.08689 21.48537 20074 ft 250 kts 308°
2026-05-08 22:29 42.09827 21.46766 20078 ft 250 kts 308°
2026-05-08 22:29 42.10962 21.44982 20075 ft 250 kts 308°
2026-05-08 22:29 42.12097 21.43200 20078 ft 250 kts 308°
2026-05-08 22:30 42.13229 21.41425 20074 ft 250 kts 308°
2026-05-08 22:30 42.14348 21.39671 20071 ft 249 kts 308°
2026-05-08 22:30 42.15483 21.37893 20054 ft 249 kts 308°
2026-05-08 22:30 42.16614 21.36120 20068 ft 249 kts 308°
2026-05-08 22:31 42.17742 21.34348 20069 ft 249 kts 308°
2026-05-08 22:31 42.18872 21.32573 20057 ft 249 kts 308°
2026-05-08 22:31 42.20003 21.30797 20063 ft 249 kts 308°
2026-05-08 22:31 42.21118 21.29048 20061 ft 248 kts 308°
2026-05-08 22:32 42.22244 21.27277 20065 ft 249 kts 308°
2026-05-08 22:32 42.23371 21.25503 20065 ft 249 kts 308°
2026-05-08 22:32 42.24504 21.23721 20061 ft 250 kts 308°
2026-05-08 22:32 42.25635 21.21937 20061 ft 249 kts 308°
2026-05-08 22:33 42.26766 21.20156 20059 ft 249 kts 308°
2026-05-08 22:33 42.27877 21.18401 20061 ft 249 kts 308°
2026-05-08 22:33 42.29002 21.16627 20060 ft 249 kts 308°
2026-05-08 22:33 42.30129 21.14847 20051 ft 249 kts 308°
2026-05-08 22:34 42.31257 21.13064 20063 ft 249 kts 308°
2026-05-08 22:34 42.32383 21.11288 20062 ft 249 kts 308°
2026-05-08 22:34 42.33507 21.09508 20063 ft 249 kts 308°
2026-05-08 22:34 42.34630 21.07729 20063 ft 249 kts 308°
2026-05-08 22:35 42.35756 21.05948 20064 ft 249 kts 308°
2026-05-08 22:35 42.36884 21.04156 20063 ft 250 kts 308°
2026-05-08 22:35 42.37995 21.02386 20058 ft 250 kts 308°
2026-05-08 22:35 42.39123 21.00594 20057 ft 249 kts 308°
2026-05-08 22:36 42.40251 20.98800 20060 ft 249 kts 308°
2026-05-08 22:36 42.41376 20.97019 20058 ft 249 kts 308°
2026-05-08 22:36 42.42498 20.95228 20060 ft 249 kts 308°
2026-05-08 22:36 42.43623 20.93445 20063 ft 249 kts 308°
2026-05-08 22:37 42.44734 20.91675 20062 ft 250 kts 308°
2026-05-08 22:37 42.45860 20.89875 20063 ft 250 kts 308°
2026-05-08 22:37 42.46987 20.88078 20046 ft 250 kts 308°
2026-05-08 22:37 42.48119 20.86283 20058 ft 250 kts 308°
2026-05-08 22:38 42.49241 20.84485 20067 ft 250 kts 308°
2026-05-08 22:38 42.50364 20.82680 20062 ft 251 kts 307°
2026-05-08 22:38 42.51485 20.80868 20060 ft 251 kts 307°
2026-05-08 22:38 42.52607 20.79053 20057 ft 251 kts 307°
2026-05-08 22:39 42.53724 20.77237 20061 ft 251 kts 307°
2026-05-08 22:39 42.54834 20.75445 20062 ft 251 kts 308°
2026-05-08 22:39 42.55965 20.73631 20060 ft 251 kts 308°
2026-05-08 22:39 42.57093 20.71823 20047 ft 251 kts 308°
2026-05-08 22:40 42.58222 20.70012 20058 ft 251 kts 308°
2026-05-08 22:40 42.59352 20.68200 20062 ft 251 kts 308°
2026-05-08 22:40 42.60481 20.66389 20056 ft 251 kts 307°
2026-05-08 22:40 42.61610 20.64576 20060 ft 251 kts 308°
2026-05-08 22:41 42.62722 20.62786 20048 ft 251 kts 308°
2026-05-08 22:41 42.63847 20.60976 20061 ft 251 kts 308°
2026-05-08 22:41 42.64977 20.59160 20061 ft 251 kts 308°
2026-05-08 22:41 42.66103 20.57346 20060 ft 251 kts 308°
2026-05-08 22:42 42.67229 20.55533 20064 ft 251 kts 308°
2026-05-08 22:42 42.68341 20.53742 20051 ft 251 kts 307°
2026-05-08 22:42 42.69467 20.51925 20062 ft 251 kts 308°
2026-05-08 22:42 42.70596 20.50102 20057 ft 251 kts 307°
2026-05-08 22:43 42.71721 20.48285 20067 ft 251 kts 307°
2026-05-08 22:43 42.72846 20.46467 20062 ft 251 kts 308°
2026-05-08 22:43 42.73971 20.44648 20054 ft 251 kts 307°
2026-05-08 22:43 42.75082 20.42851 20064 ft 251 kts 307°
2026-05-08 22:44 42.76209 20.41027 20064 ft 251 kts 307°
2026-05-08 22:44 42.77330 20.39209 20051 ft 251 kts 307°
2026-05-08 22:44 42.78457 20.37383 20067 ft 251 kts 307°
2026-05-08 22:44 42.79580 20.35560 20068 ft 252 kts 307°
2026-05-08 22:45 42.80710 20.33728 20065 ft 252 kts 307°
2026-05-08 22:45 42.81838 20.31897 20063 ft 252 kts 307°
2026-05-08 22:45 42.82964 20.30067 20061 ft 252 kts 307°
2026-05-08 22:45 42.84072 20.28263 20065 ft 251 kts 307°
2026-05-08 22:46 42.85192 20.26442 20070 ft 251 kts 307°
2026-05-08 22:46 42.86316 20.24611 20071 ft 251 kts 307°
2026-05-08 22:46 42.87439 20.22784 20068 ft 251 kts 307°
2026-05-08 22:46 42.88563 20.20952 20074 ft 251 kts 307°
2026-05-08 22:47 42.89682 20.19125 20065 ft 251 kts 307°
2026-05-08 22:47 42.90803 20.17295 20068 ft 251 kts 307°
2026-05-08 22:47 42.91921 20.15466 20058 ft 251 kts 307°
2026-05-08 22:47 42.93041 20.13637 20060 ft 251 kts 307°
2026-05-08 22:48 42.94144 20.11832 20060 ft 250 kts 307°
2026-05-08 22:48 42.95259 20.10008 20061 ft 249 kts 307°
2026-05-08 22:48 42.96375 20.08180 20078 ft 250 kts 307°
2026-05-08 22:48 42.97494 20.06346 20068 ft 251 kts 307°
2026-05-08 22:49 42.98611 20.04513 20074 ft 251 kts 307°
2026-05-08 22:49 43.00832 20.00870 20077 ft 251 kts 307°
2026-05-08 22:49 43.01951 19.99033 20076 ft 252 kts 307°
2026-05-08 22:50 43.03074 19.97190 20062 ft 252 kts 307°
2026-05-08 22:50 43.04193 19.95348 20077 ft 252 kts 307°
2026-05-08 22:50 43.05313 19.93509 20068 ft 252 kts 307°
2026-05-08 22:50 43.06431 19.91668 20063 ft 251 kts 307°
2026-05-08 22:51 43.07547 19.89830 20076 ft 251 kts 307°
2026-05-08 22:51 43.08651 19.88010 20073 ft 251 kts 307°
2026-05-08 22:51 43.09766 19.86170 20065 ft 252 kts 307°
2026-05-08 22:51 43.10511 19.84941 20068 ft 252 kts 306°
2026-05-08 22:52 43.11631 19.83094 20061 ft 252 kts 307°
2026-05-08 22:52 43.12751 19.81244 20056 ft 252 kts 307°
2026-05-08 22:52 43.13871 19.79391 20070 ft 251 kts 306°
2026-05-08 22:52 43.14983 19.77547 20058 ft 251 kts 307°
2026-05-08 22:53 43.16082 19.75730 20055 ft 250 kts 306°
2026-05-08 22:53 43.17189 19.73897 20068 ft 249 kts 306°
2026-05-08 22:53 43.18300 19.72060 20061 ft 249 kts 306°
2026-05-08 22:53 43.19402 19.70233 20064 ft 249 kts 306°
2026-05-08 22:54 43.20507 19.68397 20068 ft 249 kts 306°
2026-05-08 22:54 43.21608 19.66569 20064 ft 249 kts 306°
2026-05-08 22:54 43.22699 19.64757 20064 ft 248 kts 306°
2026-05-08 22:54 43.23797 19.62927 20051 ft 248 kts 306°
2026-05-08 22:55 43.24893 19.61102 20060 ft 248 kts 306°
2026-05-08 22:55 43.25995 19.59268 20063 ft 248 kts 306°
2026-05-08 22:55 43.27092 19.57440 20050 ft 248 kts 306°
2026-05-08 22:55 43.28190 19.55609 20056 ft 248 kts 306°
2026-05-08 22:56 43.29274 19.53803 20059 ft 249 kts 306°
2026-05-08 22:56 43.30376 19.51965 20065 ft 249 kts 306°
2026-05-08 22:56 43.31481 19.50121 20059 ft 250 kts 306°
2026-05-08 22:56 43.32585 19.48276 20064 ft 250 kts 306°
2026-05-08 22:57 43.33688 19.46429 20056 ft 250 kts 305°
2026-05-08 22:57 43.34790 19.44586 20062 ft 250 kts 305°
2026-05-08 22:57 43.35895 19.42738 20060 ft 250 kts 305°
2026-05-08 22:57 43.36986 19.40914 20051 ft 250 kts 305°
2026-05-08 22:58 43.38092 19.39057 20055 ft 250 kts 305°
2026-05-08 22:58 43.39195 19.37205 20062 ft 250 kts 305°
2026-05-08 22:58 43.40297 19.35352 20064 ft 250 kts 305°
2026-05-08 22:58 43.41400 19.33499 20063 ft 250 kts 305°
2026-05-08 22:59 43.42506 19.31641 20064 ft 251 kts 305°
2026-05-08 22:59 43.43599 19.29802 20056 ft 251 kts 304°
2026-05-08 22:59 43.44705 19.27942 20059 ft 251 kts 304°
2026-05-08 22:59 43.45809 19.26084 20055 ft 251 kts 304°
2026-05-08 23:00 43.46913 19.24224 20059 ft 250 kts 304°
2026-05-08 23:00 43.48019 19.22362 20056 ft 250 kts 304°
2026-05-08 23:00 43.49117 19.20508 20055 ft 249 kts 304°
2026-05-08 23:00 43.50213 19.18659 20051 ft 248 kts 304°
2026-05-08 23:01 43.51303 19.16816 20060 ft 247 kts 304°
2026-05-08 23:01 43.52390 19.14979 20050 ft 247 kts 304°
2026-05-08 23:01 43.53462 19.13170 20058 ft 247 kts 304°
2026-05-08 23:01 43.54549 19.11330 20062 ft 247 kts 304°
2026-05-08 23:02 43.55634 19.09491 20053 ft 247 kts 304°
2026-05-08 23:02 43.56720 19.07655 20068 ft 247 kts 304°
2026-05-08 23:02 43.57805 19.05811 20062 ft 248 kts 304°
2026-05-08 23:02 43.58909 19.03968 20059 ft 249 kts 305°
2026-05-08 23:03 43.60031 19.02145 20058 ft 248 kts 305°
2026-05-08 23:03 43.61143 19.00319 20056 ft 248 kts 304°
2026-05-08 23:03 43.62224 18.98484 19895 ft 253 kts 304°
2026-05-08 23:03 43.63331 18.96585 19607 ft 255 kts 304°
2026-05-08 23:04 43.64449 18.94673 19310 ft 255 kts 304°
2026-05-08 23:04 43.65568 18.92764 19037 ft 255 kts 304°
2026-05-08 23:04 43.66689 18.90850 18763 ft 256 kts 304°
2026-05-08 23:04 43.67812 18.88930 18490 ft 258 kts 305°
2026-05-08 23:05 43.68930 18.87018 18189 ft 259 kts 305°
2026-05-08 23:05 43.70065 18.85080 17876 ft 259 kts 305°
2026-05-08 23:05 43.71202 18.83137 17559 ft 260 kts 305°
2026-05-08 23:05 43.72344 18.81185 17239 ft 260 kts 305°
2026-05-08 23:06 43.73483 18.79234 16933 ft 261 kts 306°
2026-05-08 23:06 43.74615 18.77300 16634 ft 261 kts 306°
2026-05-08 23:06 43.75753 18.75345 16338 ft 261 kts 306°
2026-05-08 23:06 43.76896 18.73384 16031 ft 261 kts 306°
2026-05-08 23:07 43.78035 18.71427 15730 ft 262 kts 306°
2026-05-08 23:07 43.79184 18.69458 15436 ft 262 kts 306°
2026-05-08 23:07 43.80326 18.67498 15131 ft 262 kts 306°
2026-05-08 23:07 43.81469 18.65531 14849 ft 261 kts 306°
2026-05-08 23:08 43.82594 18.63594 14572 ft 261 kts 306°
2026-05-08 23:08 43.83732 18.61633 14295 ft 262 kts 307°
2026-05-08 23:08 43.84876 18.59659 14009 ft 262 kts 307°
2026-05-08 23:08 43.86022 18.57683 13706 ft 262 kts 307°
2026-05-08 23:09 43.87163 18.55716 13386 ft 262 kts 307°
2026-05-08 23:09 43.88306 18.53741 13066 ft 261 kts 307°
2026-05-08 23:09 43.89445 18.51776 12748 ft 261 kts 307°
2026-05-08 23:09 43.90575 18.49820 12440 ft 260 kts 307°
2026-05-08 23:10 43.91689 18.47891 12143 ft 259 kts 307°
2026-05-08 23:10 43.92798 18.45927 11837 ft 255 kts 302°
2026-05-08 23:10 43.93358 18.43652 11530 ft 250 kts 277°
2026-05-08 23:10 43.93438 18.41243 11242 ft 250 kts 269°
2026-05-08 23:11 43.93372 18.38832 10951 ft 249 kts 267°
2026-05-08 23:11 43.93285 18.36428 10663 ft 249 kts 268°
2026-05-08 23:11 43.93228 18.34026 10377 ft 249 kts 268°
2026-05-08 23:11 43.93190 18.31660 10085 ft 248 kts 269°
2026-05-08 23:12 43.93152 18.29269 9760 ft 248 kts 269°
2026-05-08 23:12 43.93115 18.26886 9448 ft 246 kts 269°
2026-05-08 23:12 43.93080 18.24541 9133 ft 238 kts 269°
2026-05-08 23:12 43.93040 18.22275 8822 ft 231 kts 268°
2026-05-08 23:13 43.93002 18.20063 8512 ft 226 kts 268°
2026-05-08 23:13 43.92964 18.17916 8204 ft 223 kts 268°
2026-05-08 23:13 43.92926 18.15778 7917 ft 220 kts 268°
2026-05-08 23:13 43.92889 18.13654 7623 ft 219 kts 268°
2026-05-08 23:14 43.92853 18.11540 7332 ft 219 kts 268°
2026-05-08 23:14 43.92820 18.09433 7034 ft 219 kts 269°
2026-05-08 23:14 43.92802 18.07319 6721 ft 216 kts 267°
2026-05-08 23:14 43.92315 18.05399 6248 ft 216 kts 231°
2026-05-08 23:15 43.91156 18.04398 5952 ft 186 kts 194°
2026-05-08 23:15 43.89991 18.04731 5714 ft 169 kts 149°
2026-05-08 23:15 43.89402 18.06096 5403 ft 170 kts 101°
2026-05-08 23:15 43.89371 18.07707 5200 ft 164 kts 94°
2026-05-08 23:16 43.89367 18.09261 4987 ft 159 kts 94°
2026-05-08 23:16 43.89329 18.10730 4815 ft 143 kts 96°
2026-05-08 23:16 43.89286 18.12045 4565 ft 133 kts 96°
2026-05-08 23:16 43.89242 18.13361 4300 ft 143 kts 95°
2026-05-08 23:17 43.89138 18.14738 4093 ft 143 kts 105°
2026-05-08 23:17 43.88727 18.15985 3943 ft 139 kts 120°
2026-05-08 23:17 43.88307 18.17101 3917 ft 124 kts 121°
2026-05-08 23:17 43.87906 18.18163 3816 ft 124 kts 119°
2026-05-08 23:18 43.87534 18.19235 3778 ft 126 kts 117°
2026-05-08 23:18 43.87166 18.20348 3727 ft 127 kts 116°
2026-05-08 23:18 43.86787 18.21462 3681 ft 128 kts 118°
2026-05-08 23:18 43.86382 18.22570 3587 ft 129 kts 119°
2026-05-08 23:19 43.85983 18.23671 3295 ft 127 kts 116°
2026-05-08 23:19 43.85597 18.24775 3067 ft 127 kts 118°
2026-05-08 23:19 43.85190 18.25867 2880 ft 126 kts 118°
2026-05-08 23:19 43.84785 18.26959 2706 ft 129 kts 118°
2026-05-08 23:20 43.84381 18.28029 2452 ft 124 kts 120°
2026-05-08 23:20 43.83978 18.29069 2208 ft 118 kts 120°
2026-05-08 23:20 43.83593 18.30065 2015 ft 117 kts 117°
2026-05-08 23:20 43.83225 18.31101 1833 ft 122 kts 116°
2026-05-08 23:21 43.82835 18.32156 1684 ft 119 kts 116°
2026-05-08 23:21 43.82596 18.32785 1675 ft 16 kts 117°
2026-05-08 23:21 43.82543 18.32929 1668 ft 17 kts 118°
2026-05-08 23:21 43.82509 18.33059 1670 ft 13 kts 96°
2026-05-08 23:22 43.82515 18.33168 1676 ft 11 kts 75°
2026-05-08 23:22 43.82537 18.33255 1679 ft 9 kts 68°
2026-05-08 23:22 43.82556 18.33313 1677 ft 5 kts 71°
2026-05-08 23:22 43.82572 18.33356 1682 ft 0 kts 44°